Meteo Giornale » Osservazioni meteo Stati Uniti (USA) » Aurora
ore: 21:52 - Osservazioni Meteo Aurora
Lat. 41° 46' N Lon. 88° 28' W Alt. 215 metri s.l.m.
27 °C
Sereno
Temp. 24 Ore
23 °C
33 °C
Sud/Sud-Ovest
11.1 Km/h
Dew point 23 °C
Umidità 78 %
Visibilità 14 Km
Il sole sorge alle ore 06:20
Il sole tramonta alle ore 19:27
| Data e Ora | Cielo e Fenomeni | T °C | DP °C | Um. % | Pres. hPa | Vis. km | Vento km/h | |
|---|---|---|---|---|---|---|---|---|
| Oggi h: 21:52 | Sereno | 27 | 23 | 78 | 1015 | 14 | S/SO 11.1 | |
| Oggi h: 20:52 | Sereno | 28 | 23 | 74 | 1014 | 14 | S/SO 11.1 | |
| Oggi h: 19:52 | Sereno | 28 | 24 | 78 | 1014 | 14 | S/SO 7.4 | |
| Oggi h: 18:52 | Sereno | 31 | 24 | 66 | 1014 | 14 | S/SO 9.3 | |
| Oggi h: 17:52 | Poco Nuvoloso | 33 | 25 | 62 | 1014 | 14 | S/SO 11.1 | |
| Oggi h: 16:52 | Sereno | 32 | 25 | 66 | 1014 | 14 | S/SO 11.1 | |
| Oggi h: 15:52 | Poco Nuvoloso | 33 | 25 | 62 | 1014 | 14 | S/SO 14.8 | |
| Oggi h: 14:52 | Sereno | 33 | 25 | 62 | 1014 | 14 | SO 13 | |
| Oggi h: 13:52 | Sereno | 33 | 26 | 66 | 1015 | 14 | SO 11.1 | |
| Oggi h: 12:52 | Sereno | 32 | 26 | 70 | 1015 | 14 | SO 16.7 | |
| Oggi h: 11:52 | Sereno | 31 | 25 | 70 | 1015 | 13 | SO 13 | |
| Oggi h: 10:52 | Sereno | 30 | 24 | 70 | 1015 | 13 | SO 11.1 | |
| Oggi h: 09:52 | Sereno | 28 | 24 | 78 | 1015 | 11 | O/SO 9.3 | |
| Oggi h: 08:52 | Sereno | 26 | 23 | 83 | 1015 | 11 | SO 14.8 | |
| Oggi h: 07:52 | Foschia | 24 | 23 | 94 | 1015 | 10 | SO 7.4 | |
| Oggi h: 06:52 | Foschia | 23 | 22 | 94 | 1015 | 8 | N 0 | |
| Oggi h: 05:52 | Foschia | 23 | 22 | 94 | 1014 | 10 | N 0 | |
| Oggi h: 04:52 | Pioggia Foschia | 24 | 23 | 94 | 1014 | 8 | N 0 | |
| Oggi h: 03:52 | Sereno | 24 | 23 | 94 | 1014 | 13 | O/SO 9.3 | |
| Oggi h: 02:52 | Sereno | 24 | 22 | 88 | 1014 | 13 | SO 13 | |
| Oggi h: 01:52 | Sereno | 24 | 23 | 94 | 1014 | 13 | SO 9.3 | |
| Oggi h: 00:52 | Sereno | 24 | 23 | 94 | 1014 | 13 | N 5.5 | |
| Ieri h: 23:52 | Sereno | 24 | 23 | 94 | 1014 | 11 | N 5.5 | |
| Ieri h: 22:52 | Sereno | 24 | 23 | 94 | 1014 | 11 | S/SO 7.4 | |



